RYR20LZ LEMG-LPPT

Flight info

Callsign RYR20LZ
Flight time 0h 49m
Altitude 40001
Route SVL3L SVL PIMUR ONUBA NAPES OSLEP MINTA VATZI VATZ1A
Aircraft B3XM/M-V/N

Departure

Time 2026-05-04 13:51
Airport Málaga-Costa del Sol Airport (LEMG)

Arrival

Time 2026-05-04 14:41
Airport Lisbon Humberto Delgado Airport (LPPT)
Time Latitude Longitude Altitude Speed Heading
2026-05-04 13:40 36.67264 -4.49030 32 ft 0 kts 13°
2026-05-04 13:44 36.67265 -4.49029 32 ft 1 kts 13°
2026-05-04 13:44 36.67259 -4.49031 32 ft 2 kts 13°
2026-05-04 13:44 36.67244 -4.49036 32 ft 2 kts 13°
2026-05-04 13:44 36.67229 -4.49040 32 ft 2 kts 13°
2026-05-04 13:45 36.67214 -4.49044 31 ft 2 kts 12°
2026-05-04 13:45 36.67202 -4.49054 31 ft 2 kts 64°
2026-05-04 13:45 36.67200 -4.49072 32 ft 2 kts 108°
2026-05-04 13:45 36.67204 -4.49083 32 ft 0 kts 134°
2026-05-04 13:46 36.67207 -4.49086 32 ft 0 kts 133°
2026-05-04 13:46 36.67202 -4.49080 32 ft 0 kts 133°
2026-05-04 13:48 36.67201 -4.49078 32 ft 1 kts 133°
2026-05-04 13:48 36.67176 -4.49056 31 ft 6 kts 158°
2026-05-04 13:49 36.67135 -4.49062 32 ft 6 kts 196°
2026-05-04 13:49 36.67084 -4.49046 31 ft 9 kts 138°
2026-05-04 13:49 36.67027 -4.48966 30 ft 15 kts 134°
2026-05-04 13:49 36.66943 -4.48849 28 ft 20 kts 131°
2026-05-04 13:50 36.66839 -4.48703 28 ft 24 kts 132°
2026-05-04 13:50 36.66740 -4.48566 25 ft 19 kts 133°
2026-05-04 13:50 36.66685 -4.48500 24 ft 10 kts 152°
2026-05-04 13:50 36.66615 -4.48518 25 ft 11 kts 218°
2026-05-04 13:51 36.66571 -4.48602 28 ft 12 kts 279°
2026-05-04 13:51 36.66637 -4.48717 30 ft 37 kts 311°
2026-05-04 13:51 36.67084 -4.49340 39 ft 151 kts 309°
2026-05-04 13:51 36.67819 -4.50562 684 ft 197 kts 303°
2026-05-04 13:52 36.69477 -4.54242 2526 ft 290 kts 295°
2026-05-04 13:52 36.70484 -4.56576 3652 ft 321 kts 304°
2026-05-04 13:52 36.72036 -4.58368 4438 ft 302 kts 331°
2026-05-04 13:53 36.73919 -4.59214 5170 ft 290 kts 348°
2026-05-04 13:53 36.75947 -4.59660 5940 ft 302 kts 346°
2026-05-04 13:53 36.77948 -4.60332 6683 ft 307 kts 343°
2026-05-04 13:54 36.82059 -4.61844 8178 ft 314 kts 343°
2026-05-04 13:54 36.84158 -4.62618 8929 ft 317 kts 343°
2026-05-04 13:54 36.88135 -4.64903 10456 ft 324 kts 321°
2026-05-04 13:55 36.89679 -4.66893 11221 ft 337 kts 306°
2026-05-04 13:55 36.91653 -4.72329 12755 ft 364 kts 285°
2026-05-04 13:55 36.92283 -4.75395 13504 ft 376 kts 283°
2026-05-04 13:56 36.92892 -4.78499 14236 ft 387 kts 283°
2026-05-04 13:56 36.93541 -4.81813 14994 ft 397 kts 283°
2026-05-04 13:56 36.94870 -4.88588 16487 ft 417 kts 283°
2026-05-04 13:57 36.95515 -4.91861 17186 ft 433 kts 284°
2026-05-04 13:57 36.96279 -4.95733 17977 ft 449 kts 284°
2026-05-04 13:58 36.98607 -5.07407 20451 ft 483 kts 285°
2026-05-04 13:58 37.00556 -5.15439 22334 ft 496 kts 287°
2026-05-04 13:58 37.01753 -5.19420 23270 ft 501 kts 295°
2026-05-04 13:59 37.03382 -5.23173 24205 ft 505 kts 303°
2026-05-04 13:59 37.05449 -5.26680 25151 ft 508 kts 310°
2026-05-04 13:59 37.10322 -5.32678 26702 ft 518 kts 312°
2026-05-04 14:00 37.12818 -5.36211 27522 ft 522 kts 314°
2026-05-04 14:00 37.17792 -5.42754 29066 ft 526 kts 313°
2026-05-04 14:00 37.20252 -5.46052 29788 ft 527 kts 313°
2026-05-04 14:01 37.22737 -5.49383 30533 ft 527 kts 313°
2026-05-04 14:01 37.25239 -5.52741 31284 ft 526 kts 313°
2026-05-04 14:01 37.30150 -5.59338 32763 ft 523 kts 313°
2026-05-04 14:02 37.32603 -5.62638 33506 ft 520 kts 313°
2026-05-04 14:02 37.34832 -5.65636 34183 ft 517 kts 313°
2026-05-04 14:02 37.37370 -5.69048 34959 ft 514 kts 312°
2026-05-04 14:02 37.39407 -5.72534 35722 ft 506 kts 295°
2026-05-04 14:03 37.40771 -5.76550 36505 ft 501 kts 292°
2026-05-04 14:03 37.42003 -5.80574 37243 ft 497 kts 284°
2026-05-04 14:03 37.42356 -5.84752 37821 ft 493 kts 265°
2026-05-04 14:03 37.41561 -5.88845 38412 ft 489 kts 245°
2026-05-04 14:04 37.38969 -5.96596 39430 ft 488 kts 255°
2026-05-04 14:04 37.38174 -6.00759 39904 ft 489 kts 257°
2026-05-04 14:04 37.37424 -6.04920 39992 ft 498 kts 257°
2026-05-04 14:05 37.35897 -6.13503 40001 ft 513 kts 257°
2026-05-04 14:05 37.35129 -6.17831 39998 ft 518 kts 257°
2026-05-04 14:06 37.33567 -6.26613 39998 ft 520 kts 257°
2026-05-04 14:06 37.32008 -6.35377 39998 ft 520 kts 257°
2026-05-04 14:07 37.30450 -6.44192 39998 ft 520 kts 257°
2026-05-04 14:07 37.28938 -6.52932 39998 ft 520 kts 257°
2026-05-04 14:08 37.27326 -6.61667 39998 ft 520 kts 257°
2026-05-04 14:08 37.25693 -6.70327 39997 ft 520 kts 256°
2026-05-04 14:09 37.23220 -6.83465 39998 ft 520 kts 256°
2026-05-04 14:10 37.20755 -6.96571 39997 ft 519 kts 256°
2026-05-04 14:10 37.19105 -7.05321 39998 ft 518 kts 256°
2026-05-04 14:11 37.17447 -7.14054 39998 ft 518 kts 256°
2026-05-04 14:11 37.14980 -7.27126 39993 ft 518 kts 258°
2026-05-04 14:12 37.14361 -7.35961 39992 ft 518 kts 272°
2026-05-04 14:12 37.15499 -7.44720 39991 ft 518 kts 287°
2026-05-04 14:13 37.16655 -7.48909 39984 ft 504 kts 291°
2026-05-04 14:13 37.17876 -7.52837 39809 ft 487 kts 291°
2026-05-04 14:13 37.19099 -7.56713 39192 ft 478 kts 291°
2026-05-04 14:13 37.20300 -7.60503 38730 ft 468 kts 291°
2026-05-04 14:14 37.21491 -7.64261 38276 ft 460 kts 291°
2026-05-04 14:14 37.23747 -7.71386 37437 ft 445 kts 291°
2026-05-04 14:14 37.24898 -7.74950 37003 ft 441 kts 294°
2026-05-04 14:15 37.28143 -7.81335 36127 ft 436 kts 310°
2026-05-04 14:15 37.32546 -7.86470 35279 ft 449 kts 319°
2026-05-04 14:16 37.37472 -7.91621 34436 ft 471 kts 320°
2026-05-04 14:16 37.39961 -7.94220 33921 ft 465 kts 320°
2026-05-04 14:17 37.44818 -7.99299 32657 ft 450 kts 320°
2026-05-04 14:17 37.47184 -8.01775 32031 ft 443 kts 320°
2026-05-04 14:17 37.51797 -8.06611 30783 ft 432 kts 320°
2026-05-04 14:18 37.54084 -8.09012 30152 ft 426 kts 320°
2026-05-04 14:18 37.58517 -8.13674 28908 ft 418 kts 320°
2026-05-04 14:19 37.62894 -8.18283 27657 ft 410 kts 320°
2026-05-04 14:19 37.65054 -8.20561 26947 ft 408 kts 320°
2026-05-04 14:19 37.67214 -8.22834 26199 ft 407 kts 320°
2026-05-04 14:19 37.69351 -8.25080 25456 ft 405 kts 320°
2026-05-04 14:20 37.71501 -8.27343 24705 ft 404 kts 320°
2026-05-04 14:20 37.73627 -8.29584 23945 ft 399 kts 320°
2026-05-04 14:20 37.75715 -8.31787 23191 ft 388 kts 320°
2026-05-04 14:21 37.79714 -8.36013 21692 ft 370 kts 320°
2026-05-04 14:21 37.81632 -8.38042 20949 ft 363 kts 320°
2026-05-04 14:21 37.83545 -8.40069 20193 ft 357 kts 320°
2026-05-04 14:21 37.85402 -8.42038 19448 ft 351 kts 320°
2026-05-04 14:22 37.87222 -8.43965 18757 ft 345 kts 320°
2026-05-04 14:22 37.89001 -8.45851 18090 ft 339 kts 320°
2026-05-04 14:22 37.90785 -8.47743 17412 ft 334 kts 320°
2026-05-04 14:22 37.92530 -8.49599 16738 ft 329 kts 319°
2026-05-04 14:23 37.95960 -8.53234 15395 ft 321 kts 320°
2026-05-04 14:23 37.97648 -8.55013 14758 ft 317 kts 320°
2026-05-04 14:23 37.99301 -8.56754 14379 ft 308 kts 320°
2026-05-04 14:24 38.00915 -8.58454 13989 ft 300 kts 320°
2026-05-04 14:24 38.02480 -8.60101 13613 ft 292 kts 320°
2026-05-04 14:24 38.04029 -8.61731 13239 ft 291 kts 320°
2026-05-04 14:24 38.05581 -8.63372 12861 ft 289 kts 320°
2026-05-04 14:25 38.07118 -8.65009 12480 ft 286 kts 319°
2026-05-04 14:25 38.10029 -8.68121 11729 ft 274 kts 319°
2026-05-04 14:25 38.11382 -8.69566 11374 ft 271 kts 319°
2026-05-04 14:26 38.12823 -8.71107 10993 ft 270 kts 319°
2026-05-04 14:26 38.14248 -8.72628 10621 ft 270 kts 319°
2026-05-04 14:26 38.15698 -8.74173 10211 ft 274 kts 319°
2026-05-04 14:26 38.17138 -8.75709 9754 ft 273 kts 319°
2026-05-04 14:27 38.18592 -8.77259 9296 ft 271 kts 319°
2026-05-04 14:27 38.20011 -8.78767 8846 ft 269 kts 319°
2026-05-04 14:27 38.21431 -8.80274 8393 ft 267 kts 319°
2026-05-04 14:27 38.22851 -8.81773 8006 ft 263 kts 321°
2026-05-04 14:28 38.24260 -8.83225 7630 ft 259 kts 321°
2026-05-04 14:28 38.25634 -8.84637 7259 ft 257 kts 321°
2026-05-04 14:28 38.27000 -8.86035 7014 ft 248 kts 321°
2026-05-04 14:28 38.28333 -8.87406 6999 ft 243 kts 317°
2026-05-04 14:29 38.30053 -8.91041 7005 ft 243 kts 283°
2026-05-04 14:29 38.30394 -8.95296 6999 ft 242 kts 268°
2026-05-04 14:30 38.30215 -8.97391 6968 ft 237 kts 258°
2026-05-04 14:30 38.30021 -8.99445 6853 ft 235 kts 272°
2026-05-04 14:30 38.31051 -9.03312 6593 ft 233 kts 307°
2026-05-04 14:31 38.32208 -9.04791 6446 ft 241 kts 323°
2026-05-04 14:31 38.35027 -9.07044 6121 ft 240 kts 329°
2026-05-04 14:32 38.37894 -9.09183 5747 ft 239 kts 329°
2026-05-04 14:32 38.39330 -9.10253 5559 ft 239 kts 329°
2026-05-04 14:32 38.40751 -9.11309 5372 ft 238 kts 329°
2026-05-04 14:32 38.42169 -9.12364 5186 ft 238 kts 329°
2026-05-04 14:33 38.43578 -9.13410 5000 ft 237 kts 329°
2026-05-04 14:33 38.45000 -9.14465 4810 ft 236 kts 330°
2026-05-04 14:33 38.46388 -9.15493 4616 ft 230 kts 329°
2026-05-04 14:33 38.47753 -9.16503 4424 ft 224 kts 330°
2026-05-04 14:34 38.49093 -9.17490 4257 ft 217 kts 330°
2026-05-04 14:34 38.50361 -9.18422 4068 ft 210 kts 330°
2026-05-04 14:34 38.51613 -9.19336 3902 ft 202 kts 330°
2026-05-04 14:34 38.52787 -9.20185 3888 ft 192 kts 330°
2026-05-04 14:35 38.53969 -9.20971 3890 ft 190 kts 335°
2026-05-04 14:35 38.55182 -9.21642 3890 ft 189 kts 337°
2026-05-04 14:35 38.56366 -9.22268 3889 ft 184 kts 337°
2026-05-04 14:35 38.57545 -9.22889 3892 ft 185 kts 338°
2026-05-04 14:36 38.58752 -9.23469 3885 ft 185 kts 347°
2026-05-04 14:36 38.59998 -9.23550 3841 ft 178 kts
2026-05-04 14:36 38.61160 -9.23105 3595 ft 177 kts 22°
2026-05-04 14:36 38.62218 -9.22450 3326 ft 169 kts 29°
2026-05-04 14:37 38.63211 -9.21747 2987 ft 162 kts 27°
2026-05-04 14:37 38.64171 -9.21136 2897 ft 152 kts 25°
2026-05-04 14:37 38.65126 -9.20580 2772 ft 153 kts 23°
2026-05-04 14:37 38.66076 -9.20053 2634 ft 150 kts 22°
2026-05-04 14:38 38.67035 -9.19535 2416 ft 149 kts 22°
2026-05-04 14:38 38.67978 -9.19045 2201 ft 145 kts 21°
2026-05-04 14:38 38.68912 -9.18592 1923 ft 144 kts 19°
2026-05-04 14:38 38.69837 -9.18165 1686 ft 143 kts 20°
2026-05-04 14:39 38.70746 -9.17691 1509 ft 141 kts 22°
2026-05-04 14:39 38.71627 -9.17182 1402 ft 141 kts 24°
2026-05-04 14:39 38.72508 -9.16639 1293 ft 144 kts 23°
2026-05-04 14:40 38.74361 -9.15648 915 ft 146 kts 22°
2026-05-04 14:40 38.75286 -9.15137 662 ft 145 kts 22°
2026-05-04 14:40 38.76197 -9.14644 443 ft 141 kts 22°
2026-05-04 14:40 38.77070 -9.14170 344 ft 130 kts 23°
2026-05-04 14:41 38.77661 -9.13849 356 ft 79 kts 22°
2026-05-04 14:41 38.78066 -9.13631 359 ft 29 kts 23°
2026-05-04 14:41 38.78303 -9.13448 357 ft 20 kts 46°
2026-05-04 14:42 38.78361 -9.13275 349 ft 7 kts 149°
2026-05-04 14:42 38.78288 -9.13282 347 ft 13 kts 199°
2026-05-04 14:42 38.78228 -9.13313 347 ft 11 kts 202°
2026-05-04 14:43 38.78165 -9.13347 346 ft 8 kts 203°
2026-05-04 14:43 38.78114 -9.13374 346 ft 7 kts 202°
2026-05-04 14:43 38.78051 -9.13407 345 ft 12 kts 202°
2026-05-04 14:43 38.77977 -9.13448 345 ft 6 kts 203°
2026-05-04 14:44 38.77921 -9.13476 346 ft 10 kts 202°
2026-05-04 14:44 38.77840 -9.13520 347 ft 14 kts 203°
2026-05-04 14:44 38.77758 -9.13565 346 ft 8 kts 203°
2026-05-04 14:44 38.77710 -9.13590 346 ft 6 kts 199°
2026-05-04 14:45 38.77642 -9.13595 344 ft 13 kts 170°
2026-05-04 14:45 38.77574 -9.13577 341 ft 6 kts 168°
2026-05-04 14:45 38.77496 -9.13557 338 ft 15 kts 168°
2026-05-04 14:45 38.77399 -9.13531 335 ft 13 kts 169°
2026-05-04 14:46 38.77313 -9.13505 332 ft 9 kts 169°
2026-05-04 14:46 38.77233 -9.13485 332 ft 14 kts 167°
2026-05-04 14:46 38.77133 -9.13457 332 ft 7 kts 171°
2026-05-04 14:46 38.77067 -9.13442 333 ft 11 kts 169°
2026-05-04 14:47 38.76976 -9.13417 334 ft 15 kts 167°
2026-05-04 14:47 38.76867 -9.13387 336 ft 7 kts 168°
2026-05-04 14:47 38.76814 -9.13373 336 ft 2 kts 168°
2026-05-04 14:47 38.76779 -9.13368 335 ft 7 kts 187°
2026-05-04 14:48 38.76726 -9.13400 336 ft 4 kts 213°
2026-05-04 14:48 38.76697 -9.13425 337 ft 2 kts 214°
2026-05-04 14:48 38.76677 -9.13446 338 ft 4 kts 226°
2026-05-04 14:48 38.76660 -9.13489 339 ft 6 kts 250°
2026-05-04 14:49 38.76644 -9.13567 339 ft 11 kts 259°
2026-05-04 14:49 38.76631 -9.13635 339 ft 4 kts 248°
2026-05-04 14:49 38.76618 -9.13657 340 ft 2 kts 216°
2026-05-04 14:49 38.76599 -9.13665 340 ft 3 kts 186°
2026-05-04 14:50 38.76574 -9.13664 341 ft 2 kts 174°
2026-05-04 14:50 38.76543 -9.13657 341 ft 6 kts 169°
2026-05-04 14:50 38.76496 -9.13645 342 ft 6 kts 168°
2026-05-04 14:50 38.76483 -9.13642 342 ft 0 kts 168°